Pittsfield, IL

10:54 AM CDT on September 26, 2016 (GMT -0500)
Pittsfield Penstone Municipal

Weather History for KPPQ - May, 2013

Change the Weather History Date:

Thursday, May 16, 2013

  Actual Average (KUIN) Record (KUIN)
Temperature  
Mean Temperature 74 °F 63 °F  
Max Temperature 83 °F 73 °F 92 °F (1944)
Min Temperature 64 °F 53 °F 34 °F (1956)
Degree Days  
Heating Degree Days 0 4  
Month to date heating degree days 92  
Since 1 July heating degree days 5522  
Cooling Degree Days 10 2  
Month to date cooling degree days 22  
Year to date cooling degree days 40  
Growing Degree Days 24 (Base 50)    
Moisture  
Dew Point 63 °F    
Average Humidity 70    
Maximum Humidity 93    
Minimum Humidity 50    
Precipitation  
Precipitation 0.04 in 0.14 in 2.21 in (1957)
Month to date precipitation 2.23  
Year to date precipitation 11.78  
Sea Level Pressure  
Sea Level Pressure 29.91 in    
Wind  
Wind Speed 5 mph (SSW)    
Max Wind Speed 16 mph    
Max Gust Speed 23 mph    
Visibility 10 miles    
Events Rain , Thunderstorm    
T = Trace of Precipitation, MM = Missing Value Source: NWS Daily Summary

Daily Weather History Graph

Daily Weather History Graph

Search for Another Location

Airport or City:

Trip Planner

Search our weather history database for the weather conditions in past years. The results will help you decide how hot, cold, wet, or windy it might be!

Date:

Astronomy

May. 16, 2013 Rise Set
Actual Time 5:47 AM CDT 8:11 PM CDT
Civil Twilight 5:17 AM CDT 8:42 PM CDT
Nautical Twilight 4:39 AM CDT 9:20 PM CDT
Astronomical Twilight 3:57 AM CDT 10:02 PM CDT
Moon 11:20 AM CDT (5/16) 12:33 AM CDT (5/16)
Length of Visible Light 15h 25m
Length of Day
14h 24m
Waxing Crescent, 36% of the Moon is Illuminated
May 16
Waxing Crescent
May 17
First Quarter
May 24
Full
May 31
Last Quarter
Jun 8
New

Hourly Weather History & Observations

Time (CDT) Temp. Heat Index Dew Point Humidity Pressure Visibility Wind Dir Wind Speed Gust Speed Precip Events Conditions
12:15 AM 71.2 °F - 66.0 °F 84% 29.88 in 7.0 mi West 11.5 mph - 0.02 in Rain Rain
12:35 AM 71.2 °F - 65.8 °F 83% 29.89 in 10.0 mi Calm Calm - 0.03 in   Scattered Clouds
12:55 AM 70.5 °F - 65.7 °F 85% 29.89 in 10.0 mi Calm Calm - 0.03 in Rain Light Rain
1:15 AM 70.7 °F - 65.5 °F 83% 29.88 in 10.0 mi West 4.6 mph - 0.01 in Rain Light Rain
1:35 AM 70.3 °F - 65.5 °F 85% 29.87 in 10.0 mi West 6.9 mph - 0.01 in Thunderstorm Scattered Clouds
1:55 AM 70.7 °F - 65.7 °F 84% 29.88 in 10.0 mi WSW 3.5 mph - 0.01 in   Clear
2:15 AM 70.9 °F - 66.0 °F 85% 29.88 in 10.0 mi Calm Calm - N/A   Scattered Clouds
2:35 AM 69.8 °F - 65.7 °F 87% 29.88 in 10.0 mi WSW 4.6 mph - N/A   Clear
2:55 AM 70.2 °F - 65.7 °F 86% 29.88 in 10.0 mi West 4.6 mph - N/A   Clear
3:15 AM 70.0 °F - 65.5 °F 86% 29.89 in 10.0 mi WSW 4.6 mph - N/A   Clear
3:35 AM 68.9 °F - 64.8 °F 87% 29.88 in 10.0 mi NNW 5.8 mph - N/A   Clear
3:55 AM 69.8 °F - 64.9 °F 84% 29.90 in 10.0 mi Calm Calm - N/A   Clear
4:15 AM 67.8 °F - 64.6 °F 89% 29.91 in 7.0 mi Calm Calm - N/A   Clear
4:35 AM 68.9 °F - 64.9 °F 87% 29.91 in 10.0 mi West 3.5 mph - N/A   Clear
4:55 AM 68.2 °F - 64.6 °F 88% 29.90 in 10.0 mi Calm Calm - N/A   Scattered Clouds
5:15 AM 67.5 °F - 64.6 °F 90% 29.91 in 7.0 mi Calm Calm - N/A   Scattered Clouds
5:35 AM 66.6 °F - 63.7 °F 90% 29.91 in 7.0 mi Calm Calm - N/A   Clear
5:55 AM 66.9 °F - 64.2 °F 91% 29.91 in 7.0 mi Calm Calm - N/A   Clear
6:15 AM 66.4 °F - 63.3 °F 90% 29.92 in 5.0 mi Calm Calm - N/A   Clear
6:35 AM 66.2 °F - 64.0 °F 93% 29.93 in 3.0 mi Calm Calm - N/A   Scattered Clouds
6:55 AM 66.6 °F - 64.4 °F 93% 29.94 in 4.0 mi WSW 3.5 mph - N/A   Mostly Cloudy
7:15 AM 67.8 °F - 63.9 °F 87% 29.95 in 7.0 mi SW 6.9 mph - N/A   Scattered Clouds
7:35 AM 68.5 °F - 63.9 °F 85% 29.95 in 10.0 mi SW 5.8 mph - N/A   Clear
7:55 AM 69.8 °F - 64.4 °F 83% 29.96 in 10.0 mi WSW 4.6 mph - N/A   Clear
8:15 AM 70.3 °F - 64.8 °F 82% 29.95 in 10.0 mi SW 5.8 mph - N/A   Clear
8:35 AM 71.4 °F - 64.8 °F 79% 29.95 in 10.0 mi WSW 4.6 mph - N/A   Clear
8:55 AM 73.0 °F - 63.5 °F 72% 29.93 in 10.0 mi WNW 4.6 mph - N/A   Clear
9:15 AM 73.0 °F - 64.4 °F 74% 29.92 in 10.0 mi North 5.8 mph - N/A   Clear
9:35 AM 72.3 °F - 64.0 °F 75% 29.93 in 10.0 mi Calm Calm - N/A   Clear
9:55 AM 72.7 °F - 64.0 °F 74% 29.94 in 10.0 mi WNW 3.5 mph - N/A   Clear
10:15 AM 74.3 °F - 63.1 °F 68% 29.93 in 10.0 mi NW 4.6 mph - N/A   Clear
10:35 AM 73.8 °F - 62.8 °F 68% 29.93 in 10.0 mi NW 4.6 mph - N/A   Clear
10:55 AM 74.3 °F - 62.8 °F 67% 29.93 in 10.0 mi West 4.6 mph - N/A   Clear
11:15 AM 77.0 °F - 63.9 °F 64% 29.94 in 10.0 mi SSW 4.6 mph - N/A   Scattered Clouds
11:35 AM 77.5 °F - 64.6 °F 64% 29.93 in 10.0 mi South 6.9 mph - N/A   Scattered Clouds
11:55 AM 78.4 °F - 64.4 °F 62% 29.93 in 10.0 mi SSE 8.1 mph - N/A   Scattered Clouds
12:15 PM 79.3 °F - 63.7 °F 59% 29.92 in 10.0 mi SSE 9.2 mph - N/A   Clear
12:35 PM 80.2 °F 81.8 °F 63.5 °F 57% 29.91 in 10.0 mi SSE 9.2 mph - N/A   Clear
12:55 PM 80.8 °F 82.4 °F 64.0 °F 57% 29.91 in 10.0 mi SSE 6.9 mph - N/A   Scattered Clouds
1:15 PM 81.3 °F 82.6 °F 63.1 °F 54% 29.91 in 10.0 mi Calm Calm - N/A   Scattered Clouds
1:35 PM 81.1 °F 82.4 °F 63.0 °F 54% 29.90 in 10.0 mi SSE 8.1 mph - N/A   Mostly Cloudy
1:55 PM 82.4 °F 83.9 °F 64.4 °F 54% 29.89 in 10.0 mi ESE 5.8 mph - N/A   Scattered Clouds
2:15 PM 81.9 °F 82.8 °F 62.1 °F 51% 29.89 in 10.0 mi ESE 6.9 mph - N/A   Scattered Clouds
2:35 PM 81.7 °F 82.9 °F 63.0 °F 53% 29.88 in 10.0 mi ESE 10.4 mph - N/A   Mostly Cloudy
2:55 PM 82.2 °F 83.5 °F 63.5 °F 53% 29.88 in 10.0 mi SE 6.9 mph - N/A   Mostly Cloudy
3:15 PM 81.0 °F 82.5 °F 64.0 °F 56% 29.88 in 10.0 mi ESE 8.1 mph - N/A   Scattered Clouds
3:35 PM 83.5 °F 84.5 °F 63.3 °F 50% 29.88 in 10.0 mi ESE 9.2 mph - N/A   Scattered Clouds
3:55 PM 81.7 °F 83.2 °F 63.9 °F 55% 29.87 in 10.0 mi SSE 8.1 mph - N/A   Scattered Clouds
4:15 PM 81.9 °F 82.8 °F 62.1 °F 51% 29.86 in 10.0 mi SSE 6.9 mph 16.1 mph N/A   Scattered Clouds
4:35 PM 81.0 °F 82.1 °F 62.4 °F 53% 29.86 in 10.0 mi SE 10.4 mph - N/A Thunderstorm Thunderstorm
4:55 PM 77.0 °F - 59.0 °F 54% 29.86 in 10.0 mi South 16.1 mph 23.0 mph N/A Thunderstorm Scattered Clouds
5:15 PM 76.6 °F - 61.7 °F 60% 29.87 in 10.0 mi SE 8.1 mph - N/A   Scattered Clouds
5:35 PM 76.1 °F - 65.5 °F 70% 29.87 in 10.0 mi ESE 3.5 mph - N/A   Clear
5:55 PM 77.4 °F - 65.5 °F 67% 29.87 in 10.0 mi SSE 6.9 mph - N/A   Clear
6:15 PM 79.3 °F - 62.4 °F 56% 29.87 in 10.0 mi South 9.2 mph 16.1 mph N/A   Clear
6:35 PM 79.2 °F - 61.7 °F 55% 29.87 in 10.0 mi South 12.7 mph 18.4 mph N/A   Clear
6:55 PM 78.8 °F - 61.2 °F 55% 29.87 in 10.0 mi SSE 11.5 mph - N/A   Clear
7:15 PM 77.2 °F - 59.4 °F 54% 29.87 in 10.0 mi South 11.5 mph - N/A   Clear
7:35 PM 75.9 °F - 59.0 °F 56% 29.88 in 10.0 mi South 9.2 mph - N/A   Clear
7:55 PM 75.2 °F - 59.0 °F 57% 29.89 in 10.0 mi South 6.9 mph - N/A   Clear
8:15 PM 73.4 °F - 59.4 °F 61% 29.89 in 10.0 mi South 6.9 mph - N/A   Clear
8:35 PM 72.7 °F - 56.5 °F 57% 29.89 in 10.0 mi South 9.2 mph - N/A   Clear
8:55 PM 71.4 °F - 56.5 °F 59% 29.90 in 10.0 mi South 9.2 mph - N/A   Clear
9:15 PM 70.2 °F - 56.5 °F 62% 29.91 in 10.0 mi South 9.2 mph - N/A   Clear
9:35 PM 69.8 °F - 56.1 °F 62% 29.92 in 10.0 mi SSW 6.9 mph - N/A   Clear
9:55 PM 68.9 °F - 56.5 °F 65% 29.94 in 10.0 mi SSW 5.8 mph - N/A   Clear
10:15 PM 68.7 °F - 56.3 °F 64% 29.94 in 10.0 mi SSW 5.8 mph - N/A   Clear
10:35 PM 68.0 °F - 56.3 °F 66% 29.95 in 10.0 mi SSW 4.6 mph - N/A   Clear
10:55 PM 67.1 °F - 56.5 °F 69% 29.95 in 10.0 mi SSW 3.5 mph - N/A   Clear
11:15 PM 67.1 °F - 56.3 °F 68% 29.95 in 10.0 mi Calm Calm - N/A   Clear
11:35 PM 66.7 °F - 56.3 °F 69% 29.95 in 10.0 mi South 3.5 mph - N/A   Clear
11:55 PM 64.8 °F - 56.3 °F 74% 29.94 in 10.0 mi Calm Calm - N/A   Clear